sat.trackr.live / text

‹ back to catalog

ONEWEB-0064

NORAD 45433 · 2020-020K

PAYLOAD ACTIVE UNKNOWN

§ Identity

Operator
Country
UK
Launch date
2020-03-21
Launch site
TYMSC
Launch vehicle
Mass (kg)
RCS (m²)

Purposes: comms

External: N2YO · Heavens-Above · Gunter

§ Orbital elements

Epoch: 2026-09-20T02:22:23.395296Z

Period
109.80 min
Inclination
87.8972°
Eccentricity
0.0001628
Mean motion
13.11418644 rev/d
Perigee alt
1,216.4 km
Apogee alt
1,218.9 km
Semi-major
7,595.8 km
B*
3.2718e-4
RAAN
2.2001°
Arg perigee
100.4467°
Mean anomaly
259.6844°
Rev number
31,512

§ Raw data

ONEWEB-00641 45433U 20020K   26263.09888189  .00000129  00000+0  32718-3 0  99982 45433  87.8972   2.2001 0001628 100.4467 259.6844 13.11418644315129

JSON: /api/v1/satellites/45433 · /tle

For live sub-satellite position, see the globe view (requires WebGL).

§ Visibility from observer

Set your observer location to see the next 7 days of passes ≥ 10°. The values pass through the URL so the page stays shareable.

No JS? Fill the form by hand. The geolocation button needs JavaScript.